Flag for Canada Weather past 2 weeks in North Bay, Ontario, Canada

Now
77 °F

High level clouds.


Feels Like: 79 °F
Forecast: 56 / 70 °F
Wind: 10 mph from Southwest

Location: North Bay

Current Time: Jul 6, 2015 at 8:26:19 PM

Latest Report: Jul 6, 2015 at 7:00 PM


Visibility: 10 mi

Pressure: 29.95 "Hg

Humidity: 54%

Dew point: 59 °F

Location of North BayLocation

Historic Weather in North Bay — Graph

°F

North Bay temperature yesterday

Maximum temperature yesterday: 77 °F (at 4:00 PM)
Minimum temperature yesterday: 50 °F (at 5:49 AM)
Average temperature yesterday: 64 °F

Past Weeks' High & Low Weather Summary

 TemperatureHumidityPressure
High81 °F (Jul 6, 5:00 PM)100% (Jun 22, 5:45 AM)30.16 "Hg (Jun 22, 5:45 AM)
Low45 °F (Jun 24, 3:00 AM)29% (Jul 2, 6:00 PM)29.49 "Hg (Jun 23, 7:00 AM)
Average62 °F76%29.94 "Hg
* Reported Jun 21 7:00 PM — Jul 6 7:00 PM, North Bay, Weather by CustomWeather, © 2015

Note: Actual official high and low records may vary slightly from our data, if they occured in-between our weather recording intervals... More about our weather records

Advertising

North Bay weather history for previous 24 hours

 ConditionsComfort  
Time TempWeatherWind HumidityBarometerVisibility
7:00 PM
Mon, Jul 6
77 °FHigh level clouds.10 mph54%29.95 "Hg10 mi
6:00 PM77 °FHigh level clouds.14 mph51%29.97 "Hg10 mi
5:00 PM81 °FOvercast.16 mph45%29.98 "Hg10 mi
4:00 PM79 °FOvercast.14 mph48%29.99 "Hg10 mi
3:00 PM79 °FOvercast.10 mph51%30.01 "Hg10 mi
2:00 PM79 °FOvercast.13 mph54%30.03 "Hg10 mi
1:00 PM77 °FOvercast.15 mph57%30.04 "Hg10 mi
12:00 PM75 °FOvercast.10 mph61%30.06 "Hg10 mi
11:00 AM72 °FHigh level clouds.13 mph69%30.05 "Hg10 mi
10:00 AM70 °FHigh level clouds.9 mph73%30.07 "Hg10 mi
9:00 AM68 °FPartly sunny.7 mph78%30.07 "Hg15 mi
8:00 AM64 °FPartly sunny.7 mph83%30.06 "Hg15 mi
7:00 AM59 °FHigh level clouds.6 mph88%30.08 "Hg15 mi
6:00 AM59 °FClear.6 mph82%30.08 "Hg9 mi
5:00 AM57 °FClear.6 mph88%30.07 "Hg9 mi
4:00 AM57 °FClear.No wind88%30.06 "Hg9 mi
3:00 AM59 °FClear.3 mph88%30.07 "Hg9 mi
2:00 AM55 °FClear.3 mph94%30.07 "Hg9 mi
1:00 AM57 °FClear.2 mph94%30.08 "Hg9 mi
12:00 AM59 °FClear.5 mph88%30.08 "Hg9 mi
11:00 PM
Sun, Jul 5
61 °FClear.No wind88%30.10 "Hg9 mi
10:00 PM66 °FScattered clouds.5 mph68%30.09 "Hg15 mi
9:00 PM68 °FPartly sunny.7 mph69%30.09 "Hg15 mi
8:00 PM72 °FPartly sunny.3 mph65%30.08 "Hg15 mi
Weather by CustomWeather, © 2015

See weather overviewHow to use our weather pages